Wind_Speed
24 24 24 24 25 26 26 26 26 25 25 25 25 24 23 22 20 17 15 14 14 14 14 14 14 15 16 17 18 18 19 19 19 20 21 22 23 24 25 26 28 30 32 33 34 34 34 33 33 34 35 36 37 39 40 41 41 41 41 42 42 42 42
24 24 24 25 26 26 26 26 26 25 25 24 23 22 21 20 18 15 14 13 14 13 13 14 15 16 18 19 19 19 19 19 20 21 22 23 23 24 25 27 29 31 32 34 35 35 36 35 34 34 35 36 37 39 41 42 42 42 41 42 43 44 44
24 24 25 25 26 26 25 26 26 25 24 23 22 20 20 18 16 14 14 13 13 13 14 15 16 18 19 19 19 19 20 20 21 22 23 23 23 24 26 27 29 31 32 34 35 36 37 37 37 37 37 38 37 38 39 41 42 42 42 43 44 45 45
24 25 25 25 24 24 25 25 26 25 23 21 20 20 19 18 16 15 14 14 14 14 15 16 17 19 19 19 19 20 20 21 22 23 23 23 24 25 27 28 30 31 32 34 35 36 37 37 38 39 39 40 41 40 40 41 41 42 42 43 45 46 45
24 24 23 24 23 23 24 25 25 23 22 20 19 19 18 17 16 16 15 15 15 16 17 18 18 19 19 20 20 21 22 23 23 23 23 23 25 26 27 29 30 32 33 34 36 37 38 38 39 39 39 41 42 43 43 42 41 42 42 44 45 46 46
23 23 23 23 23 23 23 24 24 22 20 19 18 19 18 17 17 16 16 16 17 17 18 18 19 19 20 20 21 22 23 24 23 23 23 24 26 27 29 30 31 33 34 35 37 38 38 39 39 39 40 41 42 44 45 44 42 42 43 45 47 48 47
23 23 23 23 23 23 23 23 23 21 19 18 18 19 19 18 17 16 16 17 17 18 18 19 19 20 21 21 22 23 23 24 23 23 24 25 27 29 30 31 32 34 35 37 38 39 39 39 39 40 40 41 43 44 45 46 44 44 45 47 49 50 49
24 24 23 23 23 23 22 22 22 20 18 18 19 20 19 18 17 17 17 18 18 18 19 19 20 21 22 22 23 24 24 23 23 23 25 27 29 30 31 32 34 36 37 38 40 40 40 40 40 40 41 42 43 44 45 46 46 45 47 49 51 51 50
24 24 23 22 22 22 22 22 22 20 19 19 19 19 19 17 17 17 18 18 18 19 20 20 21 22 23 23 24 24 23 23 23 25 26 28 30 31 32 34 36 37 38 39 41 41 40 40 40 41 41 42 43 44 45 46 47 47 48 51 53 53 51
24 24 23 22 22 22 22 22 21 20 20 20 19 19 18 17 17 18 18 18 19 20 20 21 22 23 23 24 24 23 23 24 25 26 28 30 31 32 34 36 37 38 39 40 41 41 41 41 41 41 42 43 44 45 46 46 47 48 50 52 53 53 52
24 24 23 22 22 22 22 22 22 21 20 19 19 19 18 17 17 18 18 19 19 20 21 22 23 24 24 24 24 24 24 25 27 28 29 30 32 33 35 36 38 39 40 40 41 41 41 41 41 42 43 44 45 45 46 46 46 48 51 53 53 53 51
24 24 23 23 23 23 22 23 23 21 20 19 19 19 18 17 17 18 18 19 20 21 22 23 24 24 24 25 25 25 26 27 28 28 29 31 32 34 35 36 38 39 39 40 40 41 41 41 42 43 43 44 45 46 46 46 46 48 50 53 53 52 49
24 24 24 24 23 22 22 23 23 21 20 20 19 19 18 17 17 18 18 20 21 22 23 24 25 25 25 26 26 27 28 28 29 29 30 32 33 34 36 37 38 38 39 39 40 41 42 42 43 43 44 45 46 46 46 46 47 49 51 52 52 50 47
24 25 25 25 24 23 23 22 22 21 20 20 20 19 18 18 18 18 19 21 22 23 24 25 26 26 26 27 28 29 29 30 31 31 32 34 35 35 37 38 38 38 38 39 41 41 42 42 43 43 45 46 46 46 46 46 47 50 51 52 51 48 45
25 25 26 26 25 23 23 22 21 20 20 21 20 19 19 18 19 19 20 22 23 24 25 26 27 27 28 29 30 31 31 32 33 33 34 35 36 37 38 38 38 38 39 40 41 42 42 43 43 44 45 47 48 47 46 46 47 49 50 51 48 44 42
25 26 26 26 25 23 23 22 21 20 20 20 20 19 20 20 20 21 22 23 25 25 26 28 28 29 30 31 31 32 33 34 35 35 36 37 37 38 39 39 39 39 40 41 41 42 42 43 44 45 46 48 48 47 44 44 46 47 48 47 43 41 41
25 26 26 26 25 23 23 22 21 20 20 20 19 20 21 21 22 22 24 25 26 27 28 29 30 31 32 33 34 35 36 37 37 37 38 38 38 39 39 39 39 39 41 41 41 41 42 43 44 45 46 46 44 42 41 42 44 45 44 41 39 39 41
25 26 26 26 24 23 22 21 20 20 20 19 20 21 22 23 23 24 26 27 28 29 30 31 32 33 34 35 36 37 38 39 38 38 38 39 39 40 39 39 39 40 41 41 41 41 42 43 44 44 42 41 40 40 41 42 43 42 40 38 38 40 41
25 25 26 25 23 23 22 20 20 20 20 20 21 22 23 24 25 27 28 30 30 31 32 33 34 35 36 37 38 39 41 40 39 38 38 39 39 39 39 39 39 40 40 40 41 41 42 43 43 42 41 41 41 41 41 42 42 41 39 38 39 40 41
26 26 26 24 23 22 21 19 20 21 21 22 23 24 24 25 27 29 30 31 32 32 33 34 35 37 37 37 37 38 39 37 34 34 35 36 37 38 38 39 39 39 39 40 40 41 42 43 42 40 41 41 41 42 42 43 42 39 38 38 39 40 40
26 26 25 24 23 21 20 18 19 21 22 23 24 25 24 26 28 29 30 32 33 33 34 36 36 36 35 34 34 34 33 30 28 29 30 32 34 36 37 38 38 39 39 39 40 41 42 42 40 40 41 41 41 42 43 42 40 38 37 38 39 39 39
26 26 25 24 23 21 19 18 19 21 22 23 23 24 24 26 28 28 29 32 33 34 34 34 34 33 32 33 33 32 30 29 29 29 29 31 33 34 36 37 37 38 38 38 39 41 41 40 39 40 41 41 41 42 42 40 38 36 37 37 38 38 38
26 25 25 24 23 20 19 19 20 21 22 22 23 24 25 27 28 28 30 32 34 33 33 33 34 34 34 33 32 32 32 31 31 30 31 32 32 33 35 36 37 37 37 38 39 40 39 39 39 40 40 41 42 42 41 38 36 35 36 37 37 38 37
26 25 25 24 22 21 20 21 21 22 22 23 24 25 26 27 28 29 30 32 33 33 33 34 35 35 35 34 34 33 33 32 32 32 32 32 32 33 34 35 35 36 36 38 39 39 38 38 38 39 40 41 41 41 39 37 35 35 36 36 36 37 36
26 25 24 23 22 22 23 23 23 24 24 25 25 26 27 28 29 30 30 31 32 32 33 34 35 35 35 35 35 34 33 33 33 33 32 32 32 32 33 34 34 35 36 37 38 37 36 37 38 39 39 40 41 40 38 36 34 34 35 35 36 36 35
25 24 23 22 23 24 24 24 25 26 27 27 27 27 28 28 29 30 30 30 30 31 32 33 33 34 34 34 34 33 33 33 33 33 32 31 31 32 33 34 34 35 36 37 36 35 35 36 38 38 39 40 41 39 36 34 33 33 35 35 35 35 34
23 23 22 22 24 25 25 26 27 27 28 28 28 28 28 27 27 28 29 30 30 30 32 32 32 33 33 33 33 33 33 33 33 32 31 31 32 32 33 34 35 35 35 35 35 34 35 36 37 38 39 40 40 37 33 32 32 33 34 34 35 35 35
23 23 23 24 26 26 27 28 28 28 28 29 28 28 27 27 27 28 29 29 30 30 32 32 31 32 32 33 33 33 33 34 33 32 31 31 32 33 34 34 34 34 35 34 34 34 35 36 37 38 38 40 39 35 32 31 32 33 34 36 37 36 36
25 25 26 28 28 28 28 28 28 28 28 28 27 27 28 27 28 28 29 29 30 30 32 32 31 31 32 32 33 34 34 33 32 31 31 32 33 33 34 34 34 34 34 33 33 34 35 36 37 38 38 39 38 34 30 31 32 34 36 37 37 36 36
28 28 29 30 29 28 28 28 27 27 27 27 27 27 27 27 28 29 29 30 30 31 32 31 31 31 32 32 33 34 34 32 31 30 32 33 33 33 33 33 33 34 34 33 33 34 35 36 37 38 38 38 35 31 29 30 32 34 36 36 36 35 36
30 29 29 29 28 27 27 27 26 26 26 27 27 27 27 28 29 29 30 32 33 33 32 31 31 32 33 33 33 34 33 31 30 31 32 32 32 32 33 33 34 35 33 32 32 33 35 36 37 38 38 36 32 29 29 30 32 33 35 35 34 34 35
28 28 27 27 27 26 25 25 26 25 25 27 27 27 28 29 29 31 33 35 34 33 32 31 31 32 34 34 34 34 32 30 30 32 32 32 32 32 33 34 35 35 33 31 32 33 34 36 37 38 37 33 29 28 28 29 30 32 33 33 33 33 35
27 26 26 26 26 25 24 25 25 25 25 26 27 28 29 30 31 33 36 37 35 34 32 31 32 33 34 34 33 31 30 30 32 33 32 32 32 32 33 34 36 35 33 31 31 33 34 36 37 37 34 30 27 27 27 28 30 31 32 32 32 33 34
25 25 26 26 25 25 25 26 27 27 28 29 30 30 31 33 34 35 36 36 35 33 31 31 32 33 32 31 31 32 32 34 34 34 33 33 33 33 34 35 36 36 33 31 31 32 34 35 36 35 31 28 26 26 26 27 29 30 31 32 32 33 34
24 25 26 26 27 28 29 29 30 31 32 33 33 33 35 36 37 37 35 33 31 31 32 33 33 33 31 30 32 35 36 35 34 33 33 33 33 33 34 35 35 34 32 29 30 31 33 34 34 32 29 27 25 24 25 26 28 30 30 31 31 32 33
25 26 27 28 29 30 31 32 33 34 35 35 36 37 37 37 37 36 34 32 31 34 36 36 35 34 32 31 32 33 34 34 33 33 33 33 33 33 34 34 34 32 30 28 29 31 32 33 32 30 28 25 24 24 24 26 27 29 30 30 31 32 33
26 27 28 29 30 31 32 33 34 35 36 37 37 37 36 35 35 35 35 35 36 37 37 36 35 34 32 31 31 32 32 32 32 33 33 33 33 32 32 32 32 31 29 28 29 30 31 32 31 29 27 25 24 23 24 25 27 28 29 30 31 32 33
Wind_Direction
276 278 280 282 287 291 292 291 289 287 286 284 282 281 280 279 277 273 268 270 274 274 274 278 280 281 283 287 291 292 293 296 300 303 304 305 306 307 309 310 312 314 315 315 315 315 315 315 316 318 318 321 324 326 328 329 329 329 328 327 326 325 323
277 279 280 282 287 290 290 288 285 285 284 283 282 280 278 276 274 268 266 272 273 271 274 276 278 281 284 287 289 291 294 298 301 303 304 304 305 306 308 310 312 314 314 315 315 315 314 314 316 319 320 322 325 326 327 328 328 328 327 326 326 325 324
279 280 281 284 286 286 286 284 283 283 282 281 281 278 275 272 269 267 271 276 275 274 277 277 279 281 283 286 288 292 296 299 301 302 302 302 303 305 307 310 312 313 314 315 315 315 315 316 318 320 321 322 324 324 325 326 327 326 326 326 326 325 323
280 280 282 283 283 283 282 283 282 281 279 278 276 273 270 268 267 271 277 278 276 277 277 278 280 281 283 287 291 295 297 299 300 299 299 301 303 304 306 309 311 312 313 314 315 315 316 317 318 320 321 322 323 323 323 325 325 324 324 324 324 323 322
281 281 283 283 283 281 281 283 283 280 275 272 270 267 266 266 269 273 276 276 275 275 277 278 280 283 286 291 293 296 297 297 297 297 299 301 301 303 305 308 310 312 313 314 315 316 315 316 317 318 320 320 321 322 322 322 323 322 321 322 322 322 322
281 281 282 283 283 281 282 285 283 278 272 267 265 263 264 267 270 271 272 273 274 276 278 280 283 287 290 292 294 295 295 295 295 297 299 300 300 302 305 307 310 312 313 314 316 315 314 314 315 316 318 318 319 320 320 321 321 320 320 321 322 323 323
281 281 281 282 282 280 282 286 282 275 268 263 262 262 264 267 268 269 270 271 274 277 280 282 285 288 290 292 293 294 294 293 295 297 298 299 300 301 304 308 310 310 312 314 315 314 313 313 314 315 316 316 317 318 318 319 320 320 320 321 323 323 323
283 281 280 281 280 279 283 285 278 270 264 262 262 263 265 267 267 268 270 272 276 279 281 284 286 288 290 291 291 291 292 292 294 296 297 298 299 301 305 307 308 308 310 312 313 313 312 311 312 313 314 315 315 316 317 318 319 320 320 321 322 322 323
282 280 279 279 277 278 282 281 273 267 264 263 263 264 266 266 267 269 271 274 278 280 282 285 287 288 289 289 290 290 290 292 294 296 297 298 299 302 304 305 306 307 309 310 311 311 310 310 311 312 312 313 314 316 316 317 318 318 320 321 321 322 322
280 279 277 276 276 277 279 276 270 267 265 264 264 265 266 266 267 269 272 275 278 281 284 286 287 288 288 288 288 289 291 292 294 295 296 297 300 302 304 304 305 306 307 309 309 309 309 309 311 311 312 313 314 315 315 316 317 318 319 320 321 322 322
279 277 276 275 275 277 277 273 268 266 265 264 264 265 266 266 267 270 273 277 280 283 285 285 286 286 287 288 288 290 292 293 294 294 295 298 301 302 303 304 304 305 307 307 308 307 308 309 310 310 311 312 313 314 314 315 316 317 319 320 322 323 322
277 275 275 275 276 278 278 274 269 265 263 263 264 266 266 267 269 273 277 280 282 284 284 284 285 286 288 289 290 291 292 292 292 293 295 299 301 302 303 304 305 305 306 306 306 306 307 308 309 310 311 312 312 312 313 314 315 316 318 320 322 322 320
275 275 275 275 277 280 280 277 271 266 264 264 266 267 267 268 272 276 279 281 283 284 284 284 286 288 290 291 291 291 291 291 290 292 295 299 301 303 305 305 305 305 305 306 305 305 307 307 308 309 310 311 311 311 312 313 314 315 318 320 320 320 318
273 274 275 276 278 280 282 281 275 269 266 265 266 266 267 270 273 277 280 283 284 284 284 286 287 290 291 291 290 289 290 290 291 293 296 300 302 304 306 306 305 305 305 305 304 305 306 307 308 310 310 311 311 311 312 313 313 315 318 319 319 318 317
273 274 275 277 279 281 283 283 279 273 268 265 265 266 267 270 273 277 281 284 284 285 286 287 289 290 291 291 290 290 290 291 292 294 297 300 302 304 305 305 305 305 305 304 304 305 306 307 309 310 310 311 310 310 312 312 312 315 317 318 317 316 316
274 274 275 277 280 283 285 284 281 276 269 265 264 265 266 269 273 278 282 284 285 287 288 289 289 291 291 291 291 291 291 292 293 295 298 300 301 302 304 305 304 304 304 304 305 306 307 309 310 310 311 311 311 311 313 312 313 315 316 316 315 316 318
274 274 275 277 280 284 285 284 281 276 269 265 263 264 266 270 274 279 282 285 287 287 288 289 289 290 291 291 291 291 291 292 293 295 297 299 300 301 302 304 304 304 304 305 305 307 308 309 309 310 312 313 313 314 314 313 314 316 316 315 316 318 322
273 274 275 276 279 282 283 282 279 274 270 267 266 267 268 271 275 278 282 285 286 287 287 288 289 290 290 290 290 290 290 290 292 295 297 299 299 299 301 303 303 303 304 305 306 307 308 308 309 310 312 314 315 315 316 317 318 318 318 318 319 322 325
273 273 274 275 278 280 281 280 275 273 272 271 270 271 272 275 277 278 282 284 286 287 287 288 289 288 288 288 289 291 291 291 294 296 297 297 297 299 301 302 302 302 303 304 305 306 308 308 309 310 312 314 316 318 319 321 322 321 320 320 323 325 326
271 272 273 274 276 278 280 279 273 271 272 272 272 274 276 278 278 279 282 284 286 287 287 288 288 287 288 290 294 297 296 296 298 298 296 296 297 298 300 300 301 302 303 303 305 307 308 308 309 310 313 316 318 320 322 323 323 321 321 322 325 326 326
269 270 271 271 273 276 279 277 272 270 270 270 273 276 278 278 278 280 283 285 285 286 287 289 290 290 293 296 301 305 304 303 304 302 298 296 296 297 298 299 300 302 302 304 306 307 307 307 309 311 314 317 319 321 323 323 323 321 321 323 325 327 327
268 268 268 268 270 274 275 273 269 268 268 270 273 276 278 278 280 282 284 284 285 287 290 292 294 296 299 302 304 307 309 309 307 304 301 299 298 298 299 300 301 302 303 305 306 306 307 308 310 313 315 317 320 321 323 324 323 321 321 323 326 328 328
266 266 265 266 268 270 271 268 266 266 269 272 274 276 277 279 282 283 283 284 286 290 291 293 296 299 300 303 305 307 308 308 308 306 304 302 301 300 300 301 302 303 304 305 306 307 308 309 311 314 316 319 321 322 324 324 321 319 321 323 326 328 329
262 263 263 264 266 267 267 264 265 267 270 272 274 276 278 280 282 283 284 286 288 290 290 292 297 299 299 302 304 305 307 307 307 307 305 303 303 302 301 302 303 304 305 305 306 308 309 310 313 316 318 320 321 323 324 323 320 321 323 324 327 330 330
260 261 262 263 264 264 264 264 266 268 270 272 275 277 279 280 282 284 285 286 287 288 290 293 296 298 299 301 302 305 306 307 307 306 305 304 304 303 304 304 305 306 306 306 307 308 309 311 314 317 319 321 322 324 325 323 321 321 323 325 329 330 329
260 261 261 261 261 262 263 265 267 269 271 274 276 278 280 281 282 284 285 286 287 289 291 292 294 295 297 300 302 303 305 306 306 306 305 306 307 307 307 307 307 308 307 307 308 308 309 312 315 317 319 321 323 324 323 321 320 320 323 328 329 329 330
260 260 259 258 258 259 262 265 268 271 274 277 278 279 281 281 281 283 285 286 287 288 289 290 292 294 297 300 301 303 305 307 307 307 308 309 309 309 309 309 309 308 308 308 308 308 310 314 316 317 319 321 323 323 320 318 319 321 326 329 330 331 334
258 259 258 258 257 259 263 266 269 272 275 276 278 279 280 280 281 282 284 285 286 287 288 290 292 295 299 300 301 304 306 307 307 308 310 311 310 310 310 309 309 309 308 308 308 308 311 314 316 318 319 321 323 322 319 318 320 323 327 330 332 335 336
255 255 256 258 260 262 265 267 270 272 273 275 277 279 281 281 282 283 285 287 287 287 289 291 294 297 300 300 302 304 305 305 306 308 310 310 310 310 310 310 310 309 309 308 308 309 312 315 318 319 320 321 322 320 318 319 322 326 329 332 335 337 338
253 253 255 258 261 264 266 268 269 270 273 276 277 279 282 283 284 286 289 290 289 288 288 290 294 297 299 300 301 303 304 304 305 307 309 310 310 310 310 311 310 310 309 308 308 310 312 316 318 320 321 322 321 319 318 321 325 329 331 334 336 337 340
255 257 258 260 262 263 264 266 267 269 273 277 279 281 284 286 287 290 292 292 291 288 286 289 293 297 300 301 300 301 303 302 303 307 309 310 310 310 311 311 311 310 309 309 310 311 313 317 319 321 321 321 319 317 319 322 327 329 331 333 335 337 338
258 260 260 260 260 260 262 265 268 271 275 278 282 287 289 289 290 293 294 294 292 287 284 288 294 297 300 300 299 300 301 300 303 307 309 310 311 311 311 311 311 310 309 309 310 312 315 319 320 321 321 319 317 316 319 324 327 328 329 331 333 335 336
258 258 258 258 259 261 263 267 270 274 277 281 286 290 290 291 293 295 296 294 289 282 282 289 294 296 300 301 299 299 299 300 305 308 309 311 312 312 312 310 309 309 309 308 309 312 317 320 321 321 319 316 315 315 319 324 325 326 327 329 332 334 334
256 256 257 259 260 262 265 268 271 276 280 284 288 289 289 291 295 296 294 291 284 278 281 289 293 295 298 298 296 296 298 302 306 308 309 311 312 312 311 309 309 310 310 308 309 313 318 320 320 319 317 314 313 315 318 322 323 324 325 327 331 332 334
256 258 260 262 265 267 269 271 274 278 281 284 286 287 288 292 294 293 289 283 278 280 287 292 294 294 295 292 290 292 296 300 303 305 308 311 311 311 309 308 310 311 310 308 310 315 318 319 319 318 315 312 311 314 317 319 321 321 322 326 329 331 333
259 261 264 267 269 272 274 276 278 280 281 283 284 285 288 291 291 288 282 277 277 283 289 292 293 293 294 293 292 292 295 298 302 305 308 310 310 309 308 308 310 311 308 306 310 315 316 317 318 317 313 310 310 312 315 317 318 318 320 325 328 329 333
262 265 268 271 273 276 278 279 280 281 281 282 283 285 287 287 284 281 280 280 282 285 288 289 291 292 293 293 292 293 296 299 302 305 308 308 308 308 308 308 309 310 307 305 308 312 314 316 318 316 312 308 307 309 312 314 314 316 320 323 325 328 333
Height
5822 5823 5823 5823 5822 5822 5821 5821 5821 5822 5822 5822 5822 5821 5821 5820 5820 5820 5820 5820 5820 5820 5820 5819 5819 5819 5819 5819 5818 5818 5817 5817 5816 5815 5815 5814 5813 5812 5811 5810 5808 5807 5806 5804 5802 5801 5800 5798 5796 5793 5790 5788 5785 5782 5779 5776 5773 5771 5768 5766 5763 5760 5758
5820 5820 5820 5820 5819 5819 5819 5819 5819 5820 5820 5820 5819 5819 5818 5818 5819 5819 5819 5819 5818 5818 5818 5818 5818 5818 5817 5817 5816 5816 5815 5814 5814 5813 5812 5811 5811 5809 5808 5807 5806 5804 5802 5801 5799 5797 5796 5795 5793 5791 5787 5784 5781 5778 5775 5773 5770 5767 5765 5762 5759 5757 5754
5817 5817 5817 5817 5817 5817 5817 5817 5817 5818 5818 5818 5817 5816 5817 5817 5817 5817 5817 5817 5817 5816 5816 5816 5816 5816 5815 5815 5814 5814 5813 5812 5811 5811 5810 5809 5808 5807 5806 5805 5803 5801 5800 5798 5796 5794 5792 5790 5788 5787 5784 5781 5779 5775 5772 5770 5767 5764 5761 5759 5756 5753 5750
5815 5814 5815 5815 5815 5815 5815 5815 5815 5816 5816 5815 5814 5814 5815 5815 5815 5815 5815 5815 5815 5814 5814 5814 5814 5814 5813 5813 5812 5811 5811 5810 5809 5808 5808 5807 5806 5805 5804 5802 5801 5799 5797 5795 5793 5791 5789 5786 5784 5782 5779 5777 5775 5773 5770 5767 5764 5761 5758 5756 5753 5750 5747
5812 5812 5812 5812 5812 5812 5812 5813 5813 5813 5813 5813 5812 5812 5813 5813 5813 5813 5812 5813 5813 5813 5813 5812 5812 5812 5811 5811 5810 5809 5808 5808 5807 5806 5805 5805 5804 5803 5801 5800 5798 5797 5795 5793 5791 5788 5786 5784 5781 5778 5776 5772 5770 5768 5766 5764 5761 5758 5755 5753 5750 5746 5743
5809 5810 5810 5810 5810 5810 5810 5810 5810 5811 5811 5810 5810 5810 5811 5811 5810 5811 5811 5811 5811 5811 5811 5810 5810 5809 5809 5808 5807 5807 5806 5805 5805 5804 5803 5802 5801 5800 5799 5797 5796 5794 5792 5790 5788 5786 5783 5781 5778 5775 5772 5769 5766 5764 5762 5760 5758 5755 5751 5749 5746 5742 5738
5807 5808 5808 5808 5808 5807 5807 5808 5808 5809 5809 5808 5808 5808 5808 5808 5808 5808 5809 5809 5809 5808 5808 5808 5807 5807 5806 5806 5805 5804 5804 5803 5802 5801 5801 5800 5799 5798 5796 5795 5793 5791 5789 5787 5785 5783 5780 5777 5775 5772 5769 5766 5763 5760 5756 5754 5753 5750 5746 5743 5741 5737 5734
5805 5805 5806 5805 5805 5805 5805 5806 5806 5807 5806 5806 5806 5806 5806 5806 5806 5806 5806 5806 5806 5806 5806 5805 5805 5804 5804 5803 5803 5802 5801 5800 5800 5799 5798 5797 5796 5795 5793 5792 5790 5788 5786 5784 5782 5779 5777 5774 5771 5768 5766 5763 5760 5757 5753 5750 5747 5745 5742 5739 5736 5733 5729
5802 5803 5803 5803 5803 5803 5803 5804 5804 5805 5804 5804 5804 5803 5803 5804 5804 5804 5804 5804 5804 5803 5803 5803 5802 5802 5801 5801 5800 5799 5799 5798 5797 5796 5796 5795 5793 5792 5791 5789 5787 5785 5783 5781 5778 5776 5773 5771 5768 5765 5762 5760 5757 5754 5750 5747 5743 5741 5738 5735 5731 5728 5725
5800 5800 5801 5801 5801 5801 5801 5802 5803 5803 5802 5802 5801 5801 5801 5801 5802 5802 5802 5801 5801 5801 5801 5800 5800 5799 5799 5798 5798 5797 5796 5795 5795 5794 5793 5792 5791 5789 5788 5786 5784 5782 5780 5777 5775 5772 5770 5767 5764 5761 5758 5756 5753 5750 5747 5744 5740 5736 5733 5731 5728 5724 5720
5797 5797 5798 5799 5799 5799 5799 5800 5800 5800 5800 5799 5799 5799 5799 5799 5799 5799 5799 5799 5799 5799 5798 5798 5798 5797 5796 5796 5795 5794 5794 5793 5792 5791 5790 5789 5788 5786 5785 5783 5781 5778 5776 5774 5771 5769 5766 5763 5760 5757 5755 5752 5749 5746 5743 5740 5737 5733 5729 5726 5723 5719 5715
5794 5794 5795 5796 5796 5796 5797 5797 5798 5798 5797 5797 5797 5796 5797 5797 5797 5797 5797 5797 5796 5796 5796 5796 5795 5794 5794 5793 5792 5792 5791 5790 5790 5789 5788 5786 5785 5783 5781 5779 5777 5775 5772 5770 5768 5765 5762 5759 5756 5754 5751 5748 5745 5742 5739 5736 5732 5730 5727 5722 5718 5715 5712
5792 5792 5793 5793 5793 5794 5795 5795 5795 5795 5795 5794 5794 5794 5794 5795 5795 5795 5794 5794 5794 5794 5793 5793 5792 5792 5791 5790 5790 5789 5788 5788 5787 5786 5785 5783 5782 5780 5778 5776 5773 5771 5769 5766 5764 5761 5758 5755 5752 5749 5746 5743 5740 5737 5734 5732 5728 5725 5722 5720 5715 5711 5708
5789 5790 5790 5791 5791 5791 5792 5792 5792 5792 5792 5791 5791 5792 5792 5792 5792 5792 5792 5792 5792 5791 5791 5790 5790 5789 5789 5788 5787 5786 5785 5785 5784 5783 5781 5780 5778 5776 5774 5772 5770 5767 5765 5762 5760 5757 5754 5751 5748 5745 5742 5739 5736 5733 5730 5728 5724 5721 5717 5714 5711 5708 5705
5787 5787 5787 5788 5788 5789 5789 5789 5789 5789 5788 5788 5789 5789 5789 5790 5790 5790 5790 5789 5789 5789 5788 5788 5787 5786 5786 5785 5784 5783 5782 5781 5780 5779 5778 5776 5775 5773 5771 5768 5766 5764 5761 5759 5756 5754 5751 5748 5745 5742 5739 5735 5732 5729 5727 5724 5721 5717 5713 5710 5707 5704 5701
5784 5785 5785 5785 5786 5786 5786 5786 5786 5786 5785 5786 5786 5787 5787 5787 5787 5787 5787 5787 5786 5786 5785 5785 5784 5784 5783 5782 5781 5780 5779 5778 5777 5776 5774 5773 5771 5769 5767 5765 5762 5760 5758 5755 5752 5750 5747 5744 5741 5738 5735 5732 5728 5725 5723 5720 5717 5714 5710 5706 5703 5701 5697
5782 5782 5782 5783 5783 5783 5783 5783 5783 5783 5783 5783 5784 5784 5784 5784 5785 5785 5784 5784 5784 5783 5783 5782 5781 5781 5780 5779 5778 5777 5776 5775 5774 5772 5771 5769 5767 5765 5763 5761 5759 5756 5754 5751 5749 5746 5743 5740 5737 5734 5731 5728 5725 5722 5719 5716 5713 5710 5707 5703 5700 5696 5693
5779 5780 5780 5780 5780 5780 5780 5780 5780 5780 5780 5781 5781 5781 5781 5782 5782 5782 5782 5781 5781 5780 5779 5779 5778 5778 5777 5776 5775 5774 5772 5771 5770 5769 5767 5766 5763 5761 5759 5757 5755 5752 5750 5748 5745 5742 5739 5736 5733 5730 5727 5724 5721 5718 5715 5712 5709 5705 5702 5699 5696 5692 5688
5776 5777 5777 5777 5778 5777 5777 5778 5778 5778 5778 5778 5778 5778 5779 5779 5780 5779 5779 5778 5778 5777 5777 5776 5775 5775 5774 5772 5771 5770 5768 5767 5766 5765 5764 5762 5759 5757 5755 5753 5751 5748 5746 5744 5741 5738 5735 5732 5730 5727 5724 5721 5717 5714 5711 5708 5704 5701 5698 5695 5692 5688 5685
5773 5774 5774 5774 5775 5775 5775 5775 5775 5776 5776 5776 5776 5776 5777 5777 5777 5776 5776 5775 5775 5774 5773 5773 5772 5771 5770 5768 5767 5766 5764 5763 5762 5761 5759 5757 5755 5753 5751 5749 5747 5744 5742 5739 5737 5734 5731 5729 5726 5723 5720 5717 5713 5710 5707 5703 5700 5697 5694 5691 5688 5685 5681
5770 5771 5771 5772 5772 5772 5773 5773 5773 5773 5773 5773 5773 5773 5774 5774 5773 5773 5773 5772 5772 5771 5770 5769 5768 5767 5766 5765 5763 5762 5760 5759 5758 5757 5755 5753 5751 5750 5747 5745 5743 5740 5738 5735 5733 5730 5728 5725 5722 5719 5716 5713 5709 5706 5703 5699 5696 5693 5690 5687 5684 5681 5678
5768 5768 5768 5769 5769 5770 5770 5771 5770 5770 5770 5770 5770 5771 5771 5770 5770 5770 5770 5769 5768 5768 5767 5765 5764 5763 5762 5761 5760 5758 5757 5756 5754 5753 5751 5749 5748 5746 5744 5741 5739 5736 5734 5732 5729 5726 5724 5721 5718 5715 5712 5709 5706 5703 5699 5696 5693 5690 5687 5684 5681 5678 5675
5765 5765 5766 5766 5766 5767 5768 5768 5768 5767 5767 5768 5768 5768 5767 5767 5767 5768 5767 5765 5765 5764 5764 5762 5761 5760 5759 5757 5756 5755 5753 5752 5751 5749 5748 5746 5744 5742 5740 5737 5735 5733 5730 5728 5725 5722 5720 5717 5714 5711 5708 5705 5702 5699 5696 5693 5690 5687 5684 5681 5678 5675 5672
5762 5762 5763 5763 5764 5764 5765 5765 5765 5765 5765 5765 5765 5765 5764 5764 5764 5764 5763 5762 5761 5761 5760 5758 5757 5756 5755 5754 5752 5751 5750 5749 5747 5746 5744 5742 5740 5738 5736 5734 5731 5729 5727 5724 5721 5719 5716 5713 5711 5708 5704 5701 5699 5696 5693 5690 5687 5684 5681 5678 5674 5672 5669
5759 5760 5760 5760 5761 5761 5762 5762 5762 5762 5762 5762 5762 5762 5761 5761 5761 5761 5760 5759 5758 5757 5756 5755 5754 5753 5751 5750 5749 5748 5746 5745 5743 5742 5740 5738 5736 5734 5732 5730 5728 5725 5723 5720 5718 5715 5713 5710 5707 5704 5701 5698 5695 5692 5689 5686 5683 5681 5678 5675 5671 5669 5666
5756 5757 5757 5758 5758 5758 5759 5759 5760 5759 5759 5759 5759 5759 5758 5758 5758 5757 5757 5756 5755 5754 5753 5752 5751 5749 5748 5746 5745 5744 5743 5741 5740 5738 5736 5734 5732 5730 5728 5726 5724 5721 5719 5716 5714 5712 5709 5707 5704 5701 5698 5695 5692 5688 5686 5683 5681 5678 5675 5672 5669 5666 5663
5753 5754 5754 5755 5755 5755 5756 5756 5756 5756 5756 5756 5756 5756 5755 5755 5755 5754 5753 5752 5752 5751 5749 5748 5747 5746 5744 5743 5741 5740 5739 5737 5736 5734 5732 5730 5728 5726 5724 5722 5720 5717 5715 5713 5710 5708 5706 5704 5701 5698 5695 5692 5689 5686 5683 5680 5678 5675 5672 5669 5667 5663 5659
5751 5751 5751 5751 5752 5752 5753 5753 5754 5753 5753 5753 5753 5752 5752 5752 5751 5750 5750 5749 5748 5747 5745 5744 5743 5742 5740 5739 5737 5736 5735 5733 5731 5730 5728 5726 5724 5723 5721 5718 5716 5714 5711 5709 5707 5705 5703 5700 5698 5695 5692 5689 5686 5683 5681 5678 5675 5672 5669 5666 5663 5659 5656
5748 5748 5748 5748 5748 5749 5750 5751 5751 5750 5750 5749 5749 5749 5749 5748 5748 5747 5746 5745 5744 5743 5741 5740 5739 5738 5736 5735 5734 5732 5731 5729 5727 5726 5724 5722 5721 5719 5717 5715 5712 5710 5707 5705 5703 5701 5699 5697 5695 5692 5689 5686 5683 5680 5678 5675 5672 5669 5666 5662 5659 5656 5653
5745 5745 5745 5745 5746 5747 5747 5747 5747 5747 5746 5746 5746 5746 5745 5745 5744 5743 5743 5742 5740 5739 5737 5736 5735 5734 5733 5731 5730 5728 5727 5725 5724 5722 5720 5719 5717 5715 5713 5711 5708 5706 5704 5702 5700 5698 5696 5694 5691 5688 5686 5683 5680 5677 5674 5672 5669 5666 5663 5660 5657 5655 5652
5741 5741 5742 5742 5743 5744 5744 5744 5744 5744 5743 5743 5742 5742 5742 5741 5740 5740 5738 5737 5736 5734 5732 5732 5732 5730 5729 5728 5726 5724 5723 5721 5720 5718 5717 5715 5713 5711 5709 5707 5705 5702 5700 5698 5696 5695 5693 5690 5688 5685 5682 5679 5677 5674 5672 5669 5666 5663 5661 5658 5656 5653 5651
5737 5738 5738 5739 5740 5741 5741 5741 5740 5741 5741 5740 5739 5739 5739 5738 5737 5736 5734 5732 5731 5729 5728 5728 5728 5726 5725 5724 5722 5720 5719 5717 5716 5715 5713 5711 5709 5707 5705 5703 5701 5698 5696 5695 5693 5691 5689 5687 5684 5682 5679 5676 5674 5672 5669 5667 5664 5661 5659 5657 5655 5652 5650
5734 5734 5735 5736 5737 5737 5738 5738 5737 5737 5737 5737 5736 5735 5734 5733 5733 5732 5729 5728 5727 5725 5724 5724 5724 5722 5721 5720 5717 5716 5715 5713 5712 5711 5709 5707 5705 5703 5701 5699 5697 5695 5693 5691 5689 5688 5686 5684 5681 5678 5676 5673 5671 5669 5667 5664 5662 5660 5658 5655 5653 5651 5648
5731 5732 5732 5733 5734 5734 5735 5735 5734 5734 5734 5733 5732 5731 5730 5729 5729 5727 5726 5724 5723 5722 5721 5721 5720 5719 5718 5717 5714 5712 5711 5710 5708 5707 5705 5703 5702 5700 5698 5695 5693 5691 5689 5688 5686 5684 5682 5680 5678 5675 5673 5671 5669 5666 5664 5662 5660 5658 5656 5654 5652 5649 5646
5728 5729 5730 5730 5730 5731 5731 5731 5731 5730 5730 5729 5728 5727 5726 5725 5725 5723 5722 5721 5720 5719 5717 5717 5716 5714 5713 5713 5711 5709 5707 5706 5705 5703 5701 5700 5698 5696 5694 5691 5689 5688 5686 5684 5683 5681 5679 5677 5674 5672 5670 5668 5666 5664 5662 5660 5658 5656 5654 5652 5650 5647 5645
5725 5726 5726 5726 5727 5727 5727 5727 5726 5726 5725 5725 5724 5722 5722 5721 5720 5718 5717 5717 5717 5716 5714 5713 5712 5710 5709 5708 5707 5705 5704 5703 5701 5699 5698 5696 5694 5692 5690 5688 5686 5684 5682 5681 5680 5678 5676 5674 5671 5669 5667 5665 5663 5662 5660 5658 5656 5654 5652 5650 5648 5645 5643
5722 5722 5723 5723 5723 5723 5722 5722 5722 5721 5720 5720 5719 5718 5717 5716 5715 5714 5714 5713 5713 5712 5710 5709 5708 5706 5705 5704 5703 5701 5700 5699 5697 5695 5694 5692 5691 5689 5687 5684 5682 5681 5679 5678 5676 5675 5673 5671 5669 5666 5664 5663 5661 5659 5657 5656 5654 5652 5650 5648 5646 5643 5640